Content
SEND FEEDBACK

Daily
Averages
Monthly
Summary
United States of America

YIGO, GUAM


Home > North America > United States > Guam
Elevation: 162 meters     Latitude: 13 32N     Longitude: 144 53E

WEATHER
 
SELECT A DAY
Number of Records: 208,892;   Date Range: 1/1/95 - 7/22/14
 
SHARE

PRINT THIS DATA

[ ← Previous Day ]
WEATHER ALMANAC - 25 DECEMBER, 2013
[ Next Day → ]
[ °F ]   °C
Weather ElementAverageHighLow
Temperature26.4 °C29 °C (1:33 pm)24 °C (10:32 am)
Dewpoint24.1 °C26 °C (11:14 am)22.8 °C (1:54 am)
Humidity86.9 %100 % (10:32 am)74 % (8:54 am)
Barometer1012.2 hPa1014.2 hPa (10:22 am)1010.2 hPa (1:54 pm)
Wind Speed30.3 km/h42.6 km/h (10:22 am)
Wind Gust62.9 km/h (10:22 am)
Weather ElementAverage
Visibility13 km
Wind DirectionENE (66.8 °)

Weather ElementTotal
Precipitation17.02 mm
Cooling Degree Days8.2 (Base 18.3)
Growing Degree Days16.5 (Base 10)
Averaged from 37 records on 25 December, 2013
WEATHER CONDITIONS BREAKOUT
WIND DIRECTION BREAKOUT
WEATHER BY HOUR - 25 DECEMBER, 2013
[ °F ]   °C
Local TimeTemperatureDewpointHumidityBarometerVisibilityWind DirectionWind SpeedGust SpeedPrecipitationEventsConditions
1:54 AM26.7 °C22.8 °C79 %1012.2 hPa16.1 kmNE (50°)31.5 km/hMostly Cloudy
2:54 AM26.7 °C22.8 °C79 %1011.5 hPa16.1 kmNE (40°)27.8 km/h50.1 km/hMostly Cloudy
3:54 AM26.1 °C22.8 °C82 %1011.5 hPa16.1 kmENE (60°)25.9 km/h40.7 km/hPartly Cloudy
4:54 AM26.1 °C23.3 °C84 %1011.5 hPa16.1 kmNE (50°)25.9 km/h38.9 km/hMostly Cloudy
5:54 AM26.1 °C23.3 °C84 %1011.9 hPa16.1 kmNE (50°)29.6 km/h38.9 km/hScattered Clouds
6:54 AM26.1 °C23.3 °C84 %1012.2 hPa16.1 kmNE (50°)29.6 km/hMostly Cloudy
7:54 AM26.7 °C22.8 °C79 %1012.9 hPa16.1 kmENE (60°)35.2 km/h50.1 km/hPartly Cloudy
8:54 AM28.3 °C23.3 °C74 %1013.2 hPa16.1 kmENE (70°)25.9 km/hMostly Cloudy
9:54 AM26.1 °C24.4 °C90 %1013.5 hPa9.7 kmEast (90°)31.5 km/h51.8 km/h0.25 mmRainLight Rain
10:04 AM26 °C24 °C89 %1013.9 hPa9.7 kmEast (80°)33.3 km/h48.1 km/h0 mmRainLight Rain
10:22 AM25 °C24 °C94 %1014.2 hPa4 kmEast (80°)42.6 km/h62.9 km/h0 mmRainRain
10:32 AM24 °C24 °C100 %1013.9 hPa4.8 kmEast (90°)22.2 km/h48.1 km/h0.76 mmRainRain
10:54 AM26.1 °C24.4 °C90 %1012.9 hPa16.1 kmEast (90°)18.5 km/h0.76 mmScattered Clouds
11:14 AM28 °C26 °C89 %1013.2 hPa16.1 kmENE (70°)25.9 km/hMostly Cloudy
11:54 AM27.2 °C25 °C88 %1011.9 hPa11.3 kmENE (60°)38.9 km/h57.5 km/h0 mmRainRain
12:01 PM27 °C26 °C94 %1012.5 hPa16.1 kmENE (70°)31.5 km/h57.5 km/h0.51 mmScattered Clouds
12:54 PM28.3 °C25 °C82 %1011.2 hPa16.1 kmENE (70°)35.2 km/h46.3 km/h0.51 mmMostly Cloudy
1:33 PM29 °C24 °C74 %1011.2 hPa16.1 kmENE (70°)38.9 km/h53.8 km/hMostly Cloudy
1:54 PM28.9 °C23.9 °C74 %1010.2 hPa16.1 kmENE (60°)31.5 km/h46.3 km/hMostly Cloudy
2:54 PM27.2 °C25 °C88 %1010.2 hPa12.9 kmENE (60°)31.5 km/h44.4 km/h0.25 mmRainLight Rain
3:54 PM27.8 °C23.9 °C79 %1010.2 hPa16.1 kmENE (60°)31.5 km/h42.6 km/hMostly Cloudy
4:54 PM27.8 °C23.9 °C79 %1010.2 hPa16.1 kmENE (60°)33.3 km/h44.4 km/hMostly Cloudy
5:35 PM27 °C24 °C84 %1011.2 hPa16.1 kmENE (60°)31.5 km/h42.6 km/hMostly Cloudy
5:46 PM27 °C24 °C84 %1011.2 hPa16.1 kmENE (60°)29.6 km/h51.8 km/hMostly Cloudy
5:54 PM27.2 °C24.4 °C85 %1010.5 hPa16.1 kmENE (60°)31.5 km/h42.6 km/hMostly Cloudy
6:03 PM27 °C24 °C84 %1011.2 hPa16.1 kmENE (60°)29.6 km/hMostly Cloudy
6:54 PM27.2 °C23.9 °C82 %1011.2 hPa16.1 kmENE (60°)35.2 km/h50.1 km/hScattered Clouds
7:54 PM26.7 °C24.4 °C87 %1011.9 hPa16.1 kmNE (50°)31.5 km/h42.6 km/hScattered Clouds
8:54 PM25 °C23.3 °C90 %1012.5 hPa6.4 kmEast (90°)25.9 km/h37 km/h0.51 mmRainRain
9:07 PM25 °C24 °C94 %1013.2 hPa4.8 kmEast (90°)31.5 km/h48.1 km/h1.52 mmRainHeavy Rain
9:15 PM25 °C24 °C94 %1013.2 hPa11.3 kmENE (70°)29.6 km/h40.7 km/h1.52 mmRainLight Rain
9:54 PM25.6 °C24.4 °C93 %1012.5 hPa16.1 kmENE (70°)24.1 km/h1.52 mmMostly Cloudy
10:41 PM25 °C24 °C94 %1013.5 hPa3.2 kmEast (90°)18.5 km/h29.6 km/h2.03 mmRainHeavy Rain
10:54 PM25.6 °C25 °C96 %1012.9 hPa6.4 kmENE (60°)31.5 km/h38.9 km/h3.05 mmRainHeavy Rain
11:02 PM24 °C24 °C100 %1013.5 hPa4.8 kmENE (70°)37 km/h46.3 km/h1.02 mmRainHeavy Rain
11:05 PM24 °C24 °C100 %1013.5 hPa4.8 kmENE (70°)35.2 km/h48.1 km/h1.02 mmRainRain
11:54 PM25.6 °C24.4 °C93 %1012.2 hPa16.1 kmENE (70°)18.5 km/h1.78 mmScattered Clouds
Hourly data recorded from PGUM, located 0 kilometers away from Yigo, Guam







STORIES FROM OUR PARTNERS